{"data":{"norad_id":65674,"epoch":"2026-05-25T03:43:05.494080Z","epoch_age_seconds":65123,"freshness":"FRESH","line1":"1 65674U 25211Y   26145.15492470 -.00021164  00000+0 -14689-2 0  9994","line2":"2 65674  97.4464 189.1632 0001823 113.6052 246.5367 15.05603354 38552","mean_motion":15.05603354,"eccentricity":0.0001823,"inclination_deg":97.4464,"raan_deg":189.1632,"arg_perigee_deg":113.6052,"mean_anomaly_deg":246.5367,"bstar":-0.0014689,"rev_number":3855,"period_min":95.642719988255,"perigee_km":548.39130337064,"apogee_km":550.91717605664,"semimajor_km":6927.7912397136,"source":"CELESTRAK","updated_at":"2026-05-25T13:38:20.892827Z"}}